Time,TemperatureF,DewpointF,PressureIn,WindDirection,WindDirectionDegrees,WindSpeedMPH,WindSpeedGustMPH,Humidity,HourlyPrecipIn,Conditions,Clouds,dailyrainin,SoftwareType,DateUTC
2013-02-04 00:03:00,13.3,9.4,29.51,North,0,0.7,2.2,84,0.00,,,0.00,WUHU216HW,2013-02-04 06:03:00,
2013-02-04 00:08:00,13.3,9.6,29.51,North,0,0.2,1.8,85,0.00,,,0.00,WUHU216HW,2013-02-04 06:08:00,
2013-02-04 00:13:00,13.3,9.4,29.51,North,0,0.4,2.9,84,0.00,,,0.00,WUHU216HW,2013-02-04 06:13:00,
2013-02-04 00:18:00,13.1,8.9,29.51,North,0,0.4,2.9,83,0.00,,,0.00,WUHU216HW,2013-02-04 06:18:00,
2013-02-04 00:23:00,13.1,8.9,29.50,North,0,0.9,2.2,83,0.00,,,0.00,WUHU216HW,2013-02-04 06:23:00,
2013-02-04 00:28:00,13.1,8.9,29.51,North,0,1.1,1.6,83,0.00,,,0.00,WUHU216HW,2013-02-04 06:28:00,
2013-02-04 00:33:00,13.1,8.9,29.50,North,0,0.4,1.6,83,0.00,,,0.00,WUHU216HW,2013-02-04 06:33:00,
2013-02-04 00:38:00,13.1,8.6,29.51,North,0,1.6,2.2,82,0.00,,,0.00,WUHU216HW,2013-02-04 06:38:00,
2013-02-04 00:43:00,13.1,8.6,29.50,North,0,0.0,2.2,82,0.00,,,0.00,WUHU216HW,2013-02-04 06:43:00,
2013-02-04 00:48:00,13.1,8.6,29.50,North,0,0.0,1.6,82,0.00,,,0.00,WUHU216HW,2013-02-04 06:48:00,
2013-02-04 00:53:00,13.1,8.6,29.50,North,0,0.0,0.9,82,0.00,,,0.00,WUHU216HW,2013-02-04 06:53:00,
2013-02-04 00:58:00,13.0,8.5,29.50,North,0,0.7,0.7,82,0.00,,,0.00,WUHU216HW,2013-02-04 06:58:00,
2013-02-04 01:03:00,13.0,8.7,29.49,North,0,0.4,2.2,83,0.00,,,0.00,WUHU216HW,2013-02-04 07:03:00,
2013-02-04 01:08:00,12.8,8.6,29.49,North,0,1.1,2.5,83,0.00,,,0.00,WUHU216HW,2013-02-04 07:08:00,
2013-02-04 01:13:00,12.8,8.6,29.49,North,0,0.4,2.5,83,0.00,,,0.00,WUHU216HW,2013-02-04 07:13:00,
2013-02-04 01:18:00,12.6,8.4,29.49,North,0,0.2,1.1,83,0.00,,,0.00,WUHU216HW,2013-02-04 07:18:00,
2013-02-04 01:23:00,12.6,8.4,29.49,North,0,0.4,0.7,83,0.00,,,0.00,WUHU216HW,2013-02-04 07:23:00,
2013-02-04 01:28:00,12.6,8.6,29.49,North,0,1.1,1.3,84,0.00,,,0.00,WUHU216HW,2013-02-04 07:28:00,
2013-02-04 01:33:00,12.8,8.8,29.49,North,0,0.7,1.3,84,0.00,,,0.00,WUHU216HW,2013-02-04 07:33:00,
2013-02-04 01:38:00,12.8,8.8,29.49,North,0,3.4,4.3,84,0.00,,,0.00,WUHU216HW,2013-02-04 07:38:00,
2013-02-04 01:43:00,12.8,8.8,29.48,North,0,2.5,4.3,84,0.00,,,0.00,WUHU216HW,2013-02-04 07:43:00,
2013-02-04 01:48:00,12.8,9.1,29.48,North,0,0.9,3.8,85,0.00,,,0.00,WUHU216HW,2013-02-04 07:48:00,
2013-02-04 01:53:00,12.8,9.1,29.48,North,0,1.8,3.8,85,0.00,,,0.00,WUHU216HW,2013-02-04 07:53:00,
2013-02-04 01:58:00,12.8,9.1,29.48,North,0,1.6,3.8,85,0.00,,,0.00,WUHU216HW,2013-02-04 07:58:00,
2013-02-04 02:03:00,12.6,8.9,29.48,North,0,3.1,3.8,85,0.00,,,0.00,WUHU216HW,2013-02-04 08:03:00,
2013-02-04 02:08:00,12.6,8.9,29.48,North,0,4.0,4.0,85,0.00,,,0.00,WUHU216HW,2013-02-04 08:08:00,
2013-02-04 02:13:00,12.6,8.6,29.48,North,0,4.5,5.6,84,0.00,,,0.00,WUHU216HW,2013-02-04 08:13:00,
2013-02-04 02:18:00,12.4,8.5,29.48,North,0,4.0,5.6,84,0.00,,,0.00,WUHU216HW,2013-02-04 08:18:00,
2013-02-04 02:23:00,12.4,8.5,29.48,North,0,4.3,4.9,84,0.00,,,0.00,WUHU216HW,2013-02-04 08:23:00,
2013-02-04 02:28:00,12.4,8.5,29.48,North,0,2.5,4.9,84,0.00,,,0.00,WUHU216HW,2013-02-04 08:28:00,
2013-02-04 02:33:00,12.4,8.5,29.48,North,0,1.1,4.3,84,0.00,,,0.00,WUHU216HW,2013-02-04 08:33:00,
2013-02-04 02:38:00,12.4,8.5,29.47,North,0,0.9,2.5,84,0.00,,,0.00,WUHU216HW,2013-02-04 08:38:00,
2013-02-04 02:43:00,12.2,8.3,29.47,North,0,2.0,2.0,84,0.00,,,0.00,WUHU216HW,2013-02-04 08:43:00,
2013-02-04 02:48:00,12.2,8.3,29.47,North,0,0.4,2.9,84,0.00,,,0.00,WUHU216HW,2013-02-04 08:48:00,
2013-02-04 02:53:00,12.2,8.3,29.46,North,0,1.6,2.9,84,0.00,,,0.00,WUHU216HW,2013-02-04 08:53:00,
2013-02-04 02:58:00,12.2,8.6,29.46,North,0,1.1,2.9,85,0.00,,,0.00,WUHU216HW,2013-02-04 08:58:00,
2013-02-04 03:03:00,12.2,8.8,29.46,North,0,1.8,2.9,86,0.00,,,0.00,WUHU216HW,2013-02-04 09:03:00,
2013-02-04 03:08:00,12.1,8.6,29.46,North,0,1.6,3.1,86,0.00,,,0.00,WUHU216HW,2013-02-04 09:08:00,
2013-02-04 03:13:00,11.9,8.5,29.46,North,0,2.7,4.3,86,0.00,,,0.00,WUHU216HW,2013-02-04 09:13:00,
2013-02-04 03:18:00,11.9,8.5,29.46,North,0,1.1,4.3,86,0.00,,,0.00,WUHU216HW,2013-02-04 09:18:00,
2013-02-04 03:23:00,11.7,8.3,29.45,North,0,3.4,3.4,86,0.00,,,0.00,WUHU216HW,2013-02-04 09:23:00,
2013-02-04 03:28:00,11.7,8.3,29.45,North,0,3.4,4.0,86,0.00,,,0.00,WUHU216HW,2013-02-04 09:28:00,
2013-02-04 03:33:00,11.5,8.1,29.45,North,0,2.2,4.0,86,0.00,,,0.00,WUHU216HW,2013-02-04 09:33:00,
2013-02-04 03:38:00,11.5,8.1,29.45,North,0,3.6,3.6,86,0.00,,,0.00,WUHU216HW,2013-02-04 09:38:00,
2013-02-04 03:43:00,11.3,7.9,29.45,North,0,4.0,5.8,86,0.00,,,0.00,WUHU216HW,2013-02-04 09:43:00,
2013-02-04 03:48:00,11.3,7.9,29.45,North,0,2.5,5.8,86,0.00,,,0.00,WUHU216HW,2013-02-04 09:48:00,
2013-02-04 03:53:00,11.2,7.7,29.45,North,0,4.7,6.3,86,0.00,,,0.00,WUHU216HW,2013-02-04 09:53:00,
2013-02-04 03:58:00,11.2,7.7,29.45,North,0,4.3,6.3,86,0.00,,,0.00,WUHU216HW,2013-02-04 09:58:00,
2013-02-04 04:03:00,11.2,7.7,29.45,North,0,3.4,5.4,86,0.00,,,0.00,WUHU216HW,2013-02-04 10:03:00,
2013-02-04 04:08:00,11.2,7.7,29.45,North,0,2.7,5.4,86,0.00,,,0.00,WUHU216HW,2013-02-04 10:08:00,
2013-02-04 04:13:00,11.2,7.7,29.45,North,0,0.7,5.6,86,0.00,,,0.00,WUHU216HW,2013-02-04 10:13:00,
2013-02-04 04:18:00,11.2,7.7,29.46,North,0,2.0,5.6,86,0.00,,,0.00,WUHU216HW,2013-02-04 10:18:00,
2013-02-04 04:23:00,11.2,7.7,29.46,North,0,4.0,4.0,86,0.00,,,0.00,WUHU216HW,2013-02-04 10:23:00,
2013-02-04 04:28:00,11.2,7.7,29.46,North,0,2.0,4.0,86,0.00,,,0.00,WUHU216HW,2013-02-04 10:28:00,
2013-02-04 04:33:00,11.0,7.6,29.46,North,0,2.5,4.0,86,0.00,,,0.00,WUHU216HW,2013-02-04 10:33:00,
2013-02-04 04:38:00,10.8,7.4,29.46,North,0,1.8,2.9,86,0.00,,,0.00,WUHU216HW,2013-02-04 10:38:00,
2013-02-04 04:43:00,10.8,7.4,29.46,North,0,0.4,3.4,86,0.00,,,0.00,WUHU216HW,2013-02-04 10:43:00,
2013-02-04 04:48:00,10.8,7.4,29.46,North,0,1.1,3.4,86,0.00,,,0.00,WUHU216HW,2013-02-04 10:48:00,
2013-02-04 04:53:00,10.8,7.4,29.47,North,0,3.8,3.8,86,0.00,,,0.00,WUHU216HW,2013-02-04 10:53:00,
2013-02-04 04:58:00,10.8,7.4,29.46,North,0,3.1,3.8,86,0.00,,,0.00,WUHU216HW,2013-02-04 10:58:00,
2013-02-04 05:03:00,10.6,7.2,29.47,North,0,2.0,4.5,86,0.00,,,0.00,WUHU216HW,2013-02-04 11:03:00,
2013-02-04 05:08:00,10.6,7.2,29.46,North,0,1.1,4.7,86,0.00,,,0.00,WUHU216HW,2013-02-04 11:08:00,
2013-02-04 05:13:00,10.6,7.2,29.47,North,0,2.5,4.7,86,0.00,,,0.00,WUHU216HW,2013-02-04 11:13:00,
2013-02-04 05:18:00,10.6,6.9,29.47,North,0,4.3,4.7,85,0.00,,,0.00,WUHU216HW,2013-02-04 11:18:00,
2013-02-04 05:23:00,10.6,6.9,29.47,North,0,3.4,4.7,85,0.00,,,0.00,WUHU216HW,2013-02-04 11:23:00,
2013-02-04 05:28:00,10.6,6.9,29.47,North,0,1.8,4.3,85,0.00,,,0.00,WUHU216HW,2013-02-04 11:28:00,
2013-02-04 05:33:00,10.4,7.0,29.46,North,0,1.1,3.6,86,0.00,,,0.00,WUHU216HW,2013-02-04 11:33:00,
2013-02-04 05:38:00,10.4,7.0,29.47,North,0,3.4,4.7,86,0.00,,,0.00,WUHU216HW,2013-02-04 11:38:00,
2013-02-04 05:43:00,10.4,7.0,29.47,North,0,5.1,5.8,86,0.00,,,0.00,WUHU216HW,2013-02-04 11:43:00,
2013-02-04 05:48:00,10.4,7.0,29.46,North,0,2.9,5.8,86,0.00,,,0.00,WUHU216HW,2013-02-04 11:48:00,
2013-02-04 05:53:00,10.4,7.0,29.47,North,0,4.5,5.1,86,0.00,,,0.00,WUHU216HW,2013-02-04 11:53:00,
2013-02-04 05:58:00,10.4,7.0,29.47,North,0,6.0,6.0,86,0.00,,,0.00,WUHU216HW,2013-02-04 11:58:00,
2013-02-04 06:03:00,10.4,7.0,29.47,North,0,5.6,6.0,86,0.00,,,0.00,WUHU216HW,2013-02-04 12:03:00,
2013-02-04 06:08:00,10.4,7.0,29.47,North,0,6.3,6.5,86,0.00,,,0.00,WUHU216HW,2013-02-04 12:08:00,
2013-02-04 06:13:00,10.4,7.0,29.48,North,0,5.8,7.6,86,0.00,,,0.00,WUHU216HW,2013-02-04 12:13:00,
2013-02-04 06:18:00,10.4,7.0,29.48,North,0,6.3,7.6,86,0.00,,,0.00,WUHU216HW,2013-02-04 12:18:00,
2013-02-04 06:23:00,10.4,7.0,29.47,North,0,4.3,6.9,86,0.00,,,0.00,WUHU216HW,2013-02-04 12:23:00,
2013-02-04 06:28:00,10.4,7.0,29.47,North,0,4.0,6.9,86,0.00,,,0.00,WUHU216HW,2013-02-04 12:28:00,
2013-02-04 06:33:00,10.4,7.0,29.48,North,0,2.9,6.7,86,0.00,,,0.00,WUHU216HW,2013-02-04 12:33:00,
2013-02-04 06:38:00,10.4,7.0,29.48,North,0,1.1,6.7,86,0.00,,,0.00,WUHU216HW,2013-02-04 12:38:00,
2013-02-04 06:43:00,10.4,7.0,29.48,North,0,4.7,6.3,86,0.00,,,0.00,WUHU216HW,2013-02-04 12:43:00,
2013-02-04 06:48:00,10.4,7.0,29.48,North,0,5.4,5.8,86,0.00,,,0.00,WUHU216HW,2013-02-04 12:48:00,
2013-02-04 06:53:00,10.4,7.0,29.48,North,0,2.9,5.4,86,0.00,,,0.00,WUHU216HW,2013-02-04 12:53:00,
2013-02-04 06:58:00,10.3,6.8,29.47,North,0,4.5,5.4,86,0.00,,,0.00,WUHU216HW,2013-02-04 12:58:00,
2013-02-04 07:03:00,10.3,6.8,29.48,North,0,2.7,6.3,86,0.00,,,0.00,WUHU216HW,2013-02-04 13:03:00,
2013-02-04 07:08:00,10.3,6.8,29.48,North,0,2.7,6.3,86,0.00,,,0.00,WUHU216HW,2013-02-04 13:08:00,
2013-02-04 07:13:00,10.4,7.0,29.48,North,0,3.1,6.3,86,0.00,,,0.00,WUHU216HW,2013-02-04 13:13:00,
2013-02-04 07:18:00,10.4,7.0,29.48,North,0,4.0,7.6,86,0.00,,,0.00,WUHU216HW,2013-02-04 13:18:00,
2013-02-04 07:23:00,10.4,7.3,29.47,North,0,0.4,7.6,87,0.00,,,0.00,WUHU216HW,2013-02-04 13:23:00,
2013-02-04 07:28:00,10.4,7.0,29.47,North,0,4.7,6.0,86,0.00,,,0.00,WUHU216HW,2013-02-04 13:28:00,
2013-02-04 07:33:00,10.4,7.0,29.47,North,0,1.8,6.0,86,0.00,,,0.00,WUHU216HW,2013-02-04 13:33:00,
2013-02-04 07:38:00,10.4,7.0,29.47,North,0,2.9,4.7,86,0.00,,,0.00,WUHU216HW,2013-02-04 13:38:00,
2013-02-04 07:43:00,10.4,7.0,29.47,North,0,1.8,4.9,86,0.00,,,0.00,WUHU216HW,2013-02-04 13:43:00,
2013-02-04 07:48:00,10.4,7.3,29.47,North,0,3.4,4.9,87,0.00,,,0.00,WUHU216HW,2013-02-04 13:48:00,
2013-02-04 07:53:00,10.6,7.5,29.47,North,0,2.0,6.3,87,0.00,,,0.00,WUHU216HW,2013-02-04 13:53:00,
2013-02-04 07:58:00,10.6,7.2,29.47,North,0,6.9,6.9,86,0.00,,,0.00,WUHU216HW,2013-02-04 13:58:00,
2013-02-04 08:03:00,10.8,7.4,29.48,North,0,6.9,7.6,86,0.00,,,0.00,WUHU216HW,2013-02-04 14:03:00,
2013-02-04 08:08:00,10.8,7.4,29.48,North,0,7.6,8.3,86,0.00,,,0.00,WUHU216HW,2013-02-04 14:08:00,
2013-02-04 08:13:00,10.8,7.4,29.48,North,0,6.3,8.3,86,0.00,,,0.00,WUHU216HW,2013-02-04 14:13:00,
2013-02-04 08:18:00,10.8,7.4,29.48,North,0,7.2,8.5,86,0.00,,,0.00,WUHU216HW,2013-02-04 14:18:00,
2013-02-04 08:23:00,11.0,7.6,29.48,North,0,5.8,8.5,86,0.00,,,0.00,WUHU216HW,2013-02-04 14:23:00,
2013-02-04 08:28:00,11.2,7.7,29.48,North,0,4.5,8.5,86,0.00,,,0.00,WUHU216HW,2013-02-04 14:28:00,
2013-02-04 08:33:00,11.2,7.7,29.48,North,0,5.4,7.6,86,0.00,,,0.00,WUHU216HW,2013-02-04 14:33:00,
2013-02-04 08:38:00,11.3,7.9,29.48,North,0,1.8,6.9,86,0.00,,,0.00,WUHU216HW,2013-02-04 14:38:00,
2013-02-04 08:43:00,11.5,8.1,29.48,North,0,3.4,5.8,86,0.00,,,0.00,WUHU216HW,2013-02-04 14:43:00,
2013-02-04 08:48:00,11.7,8.0,29.48,North,0,2.7,5.8,85,0.00,,,0.00,WUHU216HW,2013-02-04 14:48:00,
2013-02-04 08:53:00,11.7,8.0,29.48,North,0,2.2,5.4,85,0.00,,,0.00,WUHU216HW,2013-02-04 14:53:00,
2013-02-04 08:58:00,11.9,7.9,29.48,North,0,2.2,3.4,84,0.00,,,0.00,WUHU216HW,2013-02-04 14:58:00,
2013-02-04 09:03:00,11.9,7.7,29.48,North,0,4.0,4.0,83,0.00,,,0.00,WUHU216HW,2013-02-04 15:03:00,
2013-02-04 09:08:00,12.1,7.8,29.48,North,0,6.0,6.0,83,0.00,,,0.00,WUHU216HW,2013-02-04 15:08:00,
2013-02-04 09:13:00,12.2,8.0,29.48,North,0,2.9,6.0,83,0.00,,,0.00,WUHU216HW,2013-02-04 15:13:00,
2013-02-04 09:18:00,12.4,8.2,29.48,North,0,2.0,6.0,83,0.00,,,0.00,WUHU216HW,2013-02-04 15:18:00,
2013-02-04 09:23:00,12.6,7.8,29.48,North,0,3.4,8.5,81,0.00,,,0.00,WUHU216HW,2013-02-04 15:23:00,
2013-02-04 09:28:00,12.4,7.7,29.48,North,0,9.2,9.2,81,0.00,,,0.00,WUHU216HW,2013-02-04 15:28:00,
2013-02-04 09:33:00,12.6,8.1,29.48,North,0,6.3,9.2,82,0.00,,,0.00,WUHU216HW,2013-02-04 15:33:00,
2013-02-04 09:38:00,12.6,7.8,29.48,North,0,4.7,9.2,81,0.00,,,0.00,WUHU216HW,2013-02-04 15:38:00,
2013-02-04 09:43:00,12.6,7.6,29.48,North,0,6.0,8.3,80,0.00,,,0.00,WUHU216HW,2013-02-04 15:43:00,
2013-02-04 09:48:00,12.8,8.0,29.48,North,0,8.1,9.2,81,0.00,,,0.00,WUHU216HW,2013-02-04 15:48:00,
2013-02-04 09:53:00,13.1,8.4,29.48,North,0,9.8,10.3,81,0.00,,,0.00,WUHU216HW,2013-02-04 15:53:00,
2013-02-04 09:58:00,13.3,8.0,29.48,North,0,7.8,10.3,79,0.00,,,0.00,WUHU216HW,2013-02-04 15:58:00,
2013-02-04 10:03:00,13.1,7.8,29.48,North,0,10.1,11.4,79,0.00,,,0.00,WUHU216HW,2013-02-04 16:03:00,
2013-02-04 10:08:00,13.3,8.3,29.48,North,0,8.3,11.4,80,0.00,,,0.00,WUHU216HW,2013-02-04 16:08:00,
2013-02-04 10:13:00,13.3,8.3,29.48,North,0,9.6,11.6,80,0.00,,,0.00,WUHU216HW,2013-02-04 16:13:00,
2013-02-04 10:18:00,13.3,8.3,29.48,North,0,9.4,11.6,80,0.00,,,0.00,WUHU216HW,2013-02-04 16:18:00,
2013-02-04 10:23:00,13.5,8.2,29.48,North,0,7.2,10.3,79,0.00,,,0.00,WUHU216HW,2013-02-04 16:23:00,
2013-02-04 10:28:00,13.5,8.2,29.48,North,0,9.2,11.0,79,0.00,,,0.00,WUHU216HW,2013-02-04 16:28:00,
2013-02-04 10:33:00,13.7,8.1,29.48,North,0,8.3,11.0,78,0.00,,,0.00,WUHU216HW,2013-02-04 16:33:00,
2013-02-04 10:38:00,13.7,8.1,29.48,North,0,8.9,9.2,78,0.00,,,0.00,WUHU216HW,2013-02-04 16:38:00,
2013-02-04 10:43:00,13.9,7.9,29.48,North,0,9.8,9.8,77,0.00,,,0.00,WUHU216HW,2013-02-04 16:43:00,
2013-02-04 10:48:00,14.0,7.8,29.48,North,0,5.1,9.8,76,0.00,,,0.00,WUHU216HW,2013-02-04 16:48:00,
2013-02-04 10:53:00,14.0,7.8,29.48,North,0,8.1,9.8,76,0.00,,,0.00,WUHU216HW,2013-02-04 16:53:00,
2013-02-04 10:58:00,14.2,8.0,29.48,North,0,10.5,10.5,76,0.00,,,0.00,WUHU216HW,2013-02-04 16:58:00,
2013-02-04 11:03:00,14.2,8.3,29.49,North,0,6.3,10.5,77,0.00,,,0.00,WUHU216HW,2013-02-04 17:03:00,
2013-02-04 11:08:00,14.0,7.8,29.49,North,0,10.5,10.5,76,0.00,,,0.00,WUHU216HW,2013-02-04 17:08:00,
2013-02-04 11:13:00,14.0,7.8,29.49,North,0,10.1,11.4,76,0.00,,,0.00,WUHU216HW,2013-02-04 17:13:00,
2013-02-04 11:18:00,14.4,8.2,29.49,NNE,23,8.5,11.4,76,0.00,,,0.00,WUHU216HW,2013-02-04 17:18:00,
2013-02-04 11:23:00,14.8,8.3,29.49,North,0,8.5,10.1,75,0.00,,,0.00,WUHU216HW,2013-02-04 17:23:00,
2013-02-04 11:28:00,14.8,8.3,29.49,North,0,10.1,10.1,75,0.00,,,0.00,WUHU216HW,2013-02-04 17:28:00,
2013-02-04 11:33:00,14.2,7.5,29.49,North,0,5.1,10.1,74,0.00,,,0.00,WUHU216HW,2013-02-04 17:33:00,
2013-02-04 11:38:00,13.5,6.5,29.49,NNE,23,4.0,10.1,73,0.00,,,0.00,WUHU216HW,2013-02-04 17:38:00,
2013-02-04 11:43:00,13.0,6.0,29.49,North,0,9.2,9.2,73,0.00,,,0.00,WUHU216HW,2013-02-04 17:43:00,
2013-02-04 11:48:00,13.0,6.2,29.48,NNW,338,3.1,9.2,74,0.00,,,0.00,WUHU216HW,2013-02-04 17:48:00,
2013-02-04 11:53:00,13.1,6.1,29.48,North,0,7.6,9.2,73,0.00,,,0.00,WUHU216HW,2013-02-04 17:53:00,
2013-02-04 11:58:00,13.0,5.6,29.48,North,0,8.1,8.1,72,0.00,,,0.00,WUHU216HW,2013-02-04 17:58:00,
2013-02-04 12:03:00,12.8,5.4,29.48,North,0,6.3,8.3,72,0.00,,,0.00,WUHU216HW,2013-02-04 18:03:00,
2013-02-04 12:08:00,12.8,5.4,29.48,North,0,7.6,8.5,72,0.00,,,0.00,WUHU216HW,2013-02-04 18:08:00,
2013-02-04 12:13:00,13.7,6.7,29.48,North,0,5.8,8.5,73,0.00,,,0.00,WUHU216HW,2013-02-04 18:13:00,
2013-02-04 12:18:00,13.9,5.6,29.49,NNW,338,2.2,8.3,69,0.00,,,0.00,WUHU216HW,2013-02-04 18:18:00,
2013-02-04 12:23:00,13.7,5.4,29.48,North,0,8.5,9.6,69,0.00,,,0.00,WUHU216HW,2013-02-04 18:23:00,
2013-02-04 12:28:00,14.2,5.9,29.49,North,0,8.9,9.6,69,0.00,,,0.00,WUHU216HW,2013-02-04 18:28:00,
2013-02-04 12:33:00,14.6,6.3,29.48,North,0,9.2,9.6,69,0.00,,,0.00,WUHU216HW,2013-02-04 18:33:00,
2013-02-04 12:38:00,14.8,6.4,29.48,North,0,6.9,11.4,69,0.00,,,0.00,WUHU216HW,2013-02-04 18:38:00,
2013-02-04 12:43:00,15.3,6.6,29.48,North,0,8.5,11.4,68,0.00,,,0.00,WUHU216HW,2013-02-04 18:43:00,
2013-02-04 12:48:00,14.6,5.6,29.49,North,0,8.9,8.9,67,0.00,,,0.00,WUHU216HW,2013-02-04 18:48:00,
2013-02-04 12:53:00,14.6,5.6,29.49,North,0,8.5,8.9,67,0.00,,,0.00,WUHU216HW,2013-02-04 18:53:00,
2013-02-04 12:58:00,15.1,6.4,29.49,North,0,7.2,9.2,68,0.00,,,0.00,WUHU216HW,2013-02-04 18:58:00,
2013-02-04 13:03:00,14.8,5.8,29.49,NNE,23,6.0,9.2,67,0.00,,,0.00,WUHU216HW,2013-02-04 19:03:00,
2013-02-04 13:08:00,14.4,5.4,29.49,North,0,7.2,7.2,67,0.00,,,0.00,WUHU216HW,2013-02-04 19:08:00,
2013-02-04 13:13:00,14.0,4.8,29.49,NNW,338,2.5,7.2,66,0.00,,,0.00,WUHU216HW,2013-02-04 19:13:00,
2013-02-04 13:18:00,14.0,4.8,29.49,NNW,338,2.0,7.2,66,0.00,,,0.00,WUHU216HW,2013-02-04 19:18:00,
2013-02-04 13:23:00,14.2,5.0,29.49,NW,315,2.5,4.9,66,0.00,,,0.00,WUHU216HW,2013-02-04 19:23:00,
2013-02-04 13:28:00,14.4,5.0,29.48,NW,315,2.0,4.9,66,0.00,,,0.00,WUHU216HW,2013-02-04 19:28:00,
2013-02-04 13:33:00,14.2,5.0,29.48,NW,315,1.1,4.0,66,0.00,,,0.00,WUHU216HW,2013-02-04 19:33:00,
2013-02-04 13:38:00,14.0,4.4,29.48,NNW,338,2.7,3.8,65,0.00,,,0.00,WUHU216HW,2013-02-04 19:38:00,
2013-02-04 13:43:00,14.2,4.6,29.48,NNW,338,2.7,4.9,65,0.00,,,0.00,WUHU216HW,2013-02-04 19:43:00,
2013-02-04 13:48:00,14.0,4.4,29.48,NNW,338,2.9,5.4,65,0.00,,,0.00,WUHU216HW,2013-02-04 19:48:00,
2013-02-04 13:53:00,14.0,4.4,29.47,NNW,338,1.3,5.4,65,0.00,,,0.00,WUHU216HW,2013-02-04 19:53:00,
2013-02-04 13:58:00,14.0,4.4,29.46,NNW,338,3.4,4.3,65,0.00,,,0.00,WUHU216HW,2013-02-04 19:58:00,
2013-02-04 14:03:00,13.7,4.1,29.46,North,0,8.3,8.3,65,0.00,,,0.00,WUHU216HW,2013-02-04 20:03:00,
2013-02-04 14:08:00,13.7,3.7,29.46,NNW,338,2.9,8.3,64,0.00,,,0.00,WUHU216HW,2013-02-04 20:08:00,
2013-02-04 14:13:00,13.5,3.5,29.46,NNW,338,1.6,8.3,64,0.00,,,0.00,WUHU216HW,2013-02-04 20:13:00,
2013-02-04 14:18:00,14.0,4.4,29.45,North,0,3.4,6.5,65,0.00,,,0.00,WUHU216HW,2013-02-04 20:18:00,
2013-02-04 14:23:00,14.6,4.9,29.45,North,0,5.1,6.5,65,0.00,,,0.00,WUHU216HW,2013-02-04 20:23:00,
2013-02-04 14:28:00,15.1,5.8,29.45,North,0,6.9,7.6,66,0.00,,,0.00,WUHU216HW,2013-02-04 20:28:00,
2013-02-04 14:33:00,15.5,5.7,29.45,North,0,7.6,7.6,65,0.00,,,0.00,WUHU216HW,2013-02-04 20:33:00,
2013-02-04 14:38:00,15.5,5.7,29.45,North,0,5.4,7.6,65,0.00,,,0.00,WUHU216HW,2013-02-04 20:38:00,
2013-02-04 14:43:00,16.2,6.4,29.45,North,0,5.1,7.6,65,0.01,,,0.01,WUHU216HW,2013-02-04 20:43:00,
2013-02-04 14:48:00,16.4,6.9,29.45,NNE,23,4.9,5.4,66,0.01,,,0.01,WUHU216HW,2013-02-04 20:48:00,
2013-02-04 14:53:00,16.4,6.6,29.45,North,0,4.0,5.4,65,0.01,,,0.01,WUHU216HW,2013-02-04 20:53:00,
2013-02-04 14:58:00,15.8,6.0,29.45,North,0,2.9,5.4,65,0.01,,,0.01,WUHU216HW,2013-02-04 20:58:00,
2013-02-04 15:03:00,15.5,5.7,29.45,North,0,4.9,4.9,65,0.01,,,0.01,WUHU216HW,2013-02-04 21:03:00,
2013-02-04 15:08:00,15.8,6.0,29.45,NNW,338,1.8,4.9,65,0.01,,,0.01,WUHU216HW,2013-02-04 21:08:00,
2013-02-04 15:13:00,15.5,5.1,29.46,NNW,338,0.9,4.5,63,0.02,,,0.02,WUHU216HW,2013-02-04 21:13:00,
2013-02-04 15:18:00,15.3,4.9,29.46,NNW,338,1.1,3.4,63,0.03,,,0.03,WUHU216HW,2013-02-04 21:18:00,
2013-02-04 15:23:00,15.3,4.5,29.46,NW,315,1.8,3.4,62,0.03,,,0.03,WUHU216HW,2013-02-04 21:23:00,
2013-02-04 15:28:00,15.5,4.3,29.46,North,0,0.7,2.9,61,0.03,,,0.03,WUHU216HW,2013-02-04 21:28:00,
2013-02-04 15:33:00,15.8,4.7,29.46,NNE,23,2.2,3.1,61,0.03,,,0.03,WUHU216HW,2013-02-04 21:33:00,
2013-02-04 15:38:00,16.2,5.1,29.46,NNW,338,1.6,3.1,61,0.03,,,0.03,WUHU216HW,2013-02-04 21:38:00,
2013-02-04 15:43:00,16.6,5.4,29.46,North,0,1.3,2.7,61,0.02,,,0.03,WUHU216HW,2013-02-04 21:43:00,
2013-02-04 15:48:00,16.6,5.4,29.46,NNW,338,1.3,3.4,61,0.02,,,0.03,WUHU216HW,2013-02-04 21:48:00,
2013-02-04 15:53:00,16.4,4.9,29.46,North,0,2.5,3.4,60,0.02,,,0.03,WUHU216HW,2013-02-04 21:53:00,
2013-02-04 15:58:00,16.6,5.0,29.46,North,0,1.8,2.5,60,0.02,,,0.03,WUHU216HW,2013-02-04 21:58:00,
2013-02-04 16:03:00,16.9,5.8,29.46,NNE,23,1.1,2.5,61,0.02,,,0.03,WUHU216HW,2013-02-04 22:03:00,
2013-02-04 16:08:00,16.7,5.6,29.46,NNE,23,0.9,2.2,61,0.01,,,0.03,WUHU216HW,2013-02-04 22:08:00,
2013-02-04 16:13:00,16.4,5.2,29.46,NE,45,0.4,2.2,61,0.01,,,0.03,WUHU216HW,2013-02-04 22:13:00,
2013-02-04 16:18:00,16.2,5.1,29.46,North,0,0.4,1.1,61,0.00,,,0.03,WUHU216HW,2013-02-04 22:18:00,
2013-02-04 16:23:00,16.2,5.4,29.46,NNE,23,0.4,1.1,62,0.00,,,0.03,WUHU216HW,2013-02-04 22:23:00,
2013-02-04 16:28:00,15.7,4.9,29.46,NNE,23,0.0,0.9,62,0.00,,,0.03,WUHU216HW,2013-02-04 22:28:00,
2013-02-04 16:33:00,16.9,6.8,29.46,NNE,23,0.0,0.4,64,0.00,,,0.03,WUHU216HW,2013-02-04 22:33:00,
2013-02-04 16:38:00,17.3,6.5,29.46,NNE,23,0.7,0.7,62,0.00,,,0.03,WUHU216HW,2013-02-04 22:38:00,
2013-02-04 16:43:00,16.0,4.9,29.46,NNE,23,0.4,1.1,61,0.00,,,0.03,WUHU216HW,2013-02-04 22:43:00,
2013-02-04 16:48:00,14.9,3.9,29.46,NNE,23,0.0,1.1,61,0.00,,,0.03,WUHU216HW,2013-02-04 22:48:00,
2013-02-04 16:53:00,13.7,3.1,29.46,NNW,338,0.0,0.7,62,0.00,,,0.03,WUHU216HW,2013-02-04 22:53:00,
2013-02-04 16:58:00,13.3,3.0,29.46,NNW,338,0.0,0.7,63,0.00,,,0.03,WUHU216HW,2013-02-04 22:58:00,
2013-02-04 17:03:00,13.0,2.6,29.45,NNW,338,0.0,0.0,63,0.00,,,0.03,WUHU216HW,2013-02-04 23:03:00,
2013-02-04 17:08:00,12.4,2.4,29.46,NNW,338,0.0,0.0,64,0.00,,,0.03,WUHU216HW,2013-02-04 23:08:00,
2013-02-04 17:13:00,11.9,1.9,29.45,NNW,338,0.2,0.4,64,0.00,,,0.03,WUHU216HW,2013-02-04 23:13:00,
2013-02-04 17:18:00,11.3,1.5,29.45,NNW,338,0.0,0.4,64,0.00,,,0.03,WUHU216HW,2013-02-04 23:18:00,
2013-02-04 17:23:00,10.4,0.5,29.46,WSW,248,1.3,1.3,64,0.00,,,0.03,WUHU216HW,2013-02-04 23:23:00,
2013-02-04 17:28:00,9.5,-0.3,29.46,West,270,1.1,1.3,64,0.00,,,0.03,WUHU216HW,2013-02-04 23:28:00,
2013-02-04 17:33:00,9.2,-0.6,29.46,West,270,0.9,1.3,64,0.00,,,0.03,WUHU216HW,2013-02-04 23:33:00,
2013-02-04 17:38:00,9.0,-0.4,29.47,West,270,0.2,1.1,65,0.00,,,0.03,WUHU216HW,2013-02-04 23:38:00,
2013-02-04 17:43:00,8.5,-1.0,29.47,WNW,293,0.9,1.1,65,0.00,,,0.03,WUHU216HW,2013-02-04 23:43:00,
2013-02-04 17:48:00,8.1,-1.0,29.47,WNW,293,0.2,1.1,66,0.00,,,0.03,WUHU216HW,2013-02-04 23:48:00,
2013-02-04 17:53:00,7.9,-1.2,29.47,WNW,293,0.0,0.9,66,0.00,,,0.03,WUHU216HW,2013-02-04 23:53:00,
2013-02-04 17:58:00,7.6,-1.5,29.46,WNW,293,0.0,0.4,66,0.00,,,0.03,WUHU216HW,2013-02-04 23:58:00,
2013-02-04 18:03:00,7.0,-1.7,29.46,West,270,0.7,0.7,67,0.00,,,0.03,WUHU216HW,2013-02-05 00:03:00,
2013-02-04 18:08:00,6.1,-2.6,29.46,West,270,0.2,0.7,67,0.00,,,0.03,WUHU216HW,2013-02-05 00:08:00,
2013-02-04 18:13:00,5.8,-3.2,29.46,West,270,0.2,0.7,66,0.00,,,0.03,WUHU216HW,2013-02-05 00:13:00,
2013-02-04 18:18:00,5.6,-3.1,29.46,West,270,0.0,0.4,67,0.00,,,0.03,WUHU216HW,2013-02-05 00:18:00,
2013-02-04 18:23:00,5.4,-3.3,29.46,West,270,0.0,0.2,67,0.00,,,0.03,WUHU216HW,2013-02-05 00:23:00,
2013-02-04 18:28:00,5.0,-3.7,29.46,West,270,0.2,0.4,67,0.00,,,0.03,WUHU216HW,2013-02-05 00:28:00,
2013-02-04 18:33:00,4.9,-3.9,29.46,West,270,0.0,0.4,67,0.00,,,0.03,WUHU216HW,2013-02-05 00:33:00,
2013-02-04 18:38:00,4.5,-4.1,29.46,West,270,0.0,0.2,67,0.00,,,0.03,WUHU216HW,2013-02-05 00:38:00,
2013-02-04 18:43:00,4.1,-4.1,29.46,West,270,0.4,0.4,68,0.00,,,0.03,WUHU216HW,2013-02-05 00:43:00,
2013-02-04 18:48:00,4.3,-3.7,29.46,West,270,0.0,1.3,69,0.00,,,0.03,WUHU216HW,2013-02-05 00:48:00,
2013-02-04 18:53:00,4.9,-3.1,29.46,West,270,0.0,1.3,69,0.00,,,0.03,WUHU216HW,2013-02-05 00:53:00,
2013-02-04 18:58:00,5.2,-2.5,29.46,West,270,0.0,0.4,70,0.00,,,0.03,WUHU216HW,2013-02-05 00:58:00,
2013-02-04 19:03:00,5.4,-2.3,29.47,WSW,248,0.4,0.4,70,0.00,,,0.03,WUHU216HW,2013-02-05 01:03:00,
2013-02-04 19:08:00,5.6,-2.2,29.47,SW,225,0.0,0.7,70,0.00,,,0.03,WUHU216HW,2013-02-05 01:08:00,
2013-02-04 19:13:00,5.8,-2.0,29.47,SW,225,0.0,0.7,70,0.00,,,0.03,WUHU216HW,2013-02-05 01:13:00,
2013-02-04 19:18:00,5.6,-2.2,29.48,SW,225,0.2,0.2,70,0.00,,,0.03,WUHU216HW,2013-02-05 01:18:00,
2013-02-04 19:23:00,6.1,-1.6,29.48,WSW,248,0.4,0.4,70,0.00,,,0.03,WUHU216HW,2013-02-05 01:23:00,
2013-02-04 19:28:00,6.3,-1.2,29.49,West,270,0.2,0.4,71,0.00,,,0.03,WUHU216HW,2013-02-05 01:28:00,
2013-02-04 19:33:00,6.1,-1.3,29.49,West,270,0.0,0.4,71,0.00,,,0.03,WUHU216HW,2013-02-05 01:33:00,
2013-02-04 19:38:00,6.3,-1.2,29.49,West,270,0.0,0.4,71,0.00,,,0.03,WUHU216HW,2013-02-05 01:38:00,
2013-02-04 19:43:00,6.5,-0.3,29.49,WSW,248,1.3,1.3,73,0.00,,,0.03,WUHU216HW,2013-02-05 01:43:00,
2013-02-04 19:48:00,6.5,-0.1,29.49,WSW,248,0.0,2.5,74,0.00,,,0.03,WUHU216HW,2013-02-05 01:48:00,
2013-02-04 19:53:00,6.7,-0.2,29.49,WSW,248,0.4,2.5,73,0.00,,,0.03,WUHU216HW,2013-02-05 01:53:00,
2013-02-04 19:58:00,6.8,0.0,29.48,SW,225,0.4,0.4,73,0.00,,,0.03,WUHU216HW,2013-02-05 01:58:00,
2013-02-04 20:03:00,6.8,0.0,29.48,SSW,203,0.4,0.4,73,0.00,,,0.03,WUHU216HW,2013-02-05 02:03:00,
2013-02-04 20:08:00,6.8,0.0,29.48,SW,225,0.0,0.7,73,0.00,,,0.03,WUHU216HW,2013-02-05 02:08:00,
2013-02-04 20:13:00,6.8,0.0,29.48,SW,225,0.0,0.7,73,0.00,,,0.03,WUHU216HW,2013-02-05 02:13:00,
2013-02-04 20:18:00,6.8,0.0,29.48,SW,225,0.0,0.0,73,0.00,,,0.03,WUHU216HW,2013-02-05 02:18:00,
2013-02-04 20:23:00,6.8,0.0,29.48,SW,225,0.0,0.2,73,0.00,,,0.03,WUHU216HW,2013-02-05 02:23:00,
2013-02-04 20:28:00,6.8,0.0,29.48,SW,225,0.4,0.7,73,0.00,,,0.03,WUHU216HW,2013-02-05 02:28:00,
2013-02-04 20:33:00,7.2,0.4,29.47,SSW,203,0.7,1.1,73,0.00,,,0.03,WUHU216HW,2013-02-05 02:33:00,
2013-02-04 20:38:00,7.2,0.4,29.47,SSW,203,1.8,1.8,73,0.00,,,0.03,WUHU216HW,2013-02-05 02:38:00,
2013-02-04 20:43:00,7.2,0.4,29.47,SSW,203,0.4,1.8,73,0.00,,,0.03,WUHU216HW,2013-02-05 02:43:00,
2013-02-04 20:48:00,7.4,0.6,29.47,SSW,203,0.4,1.8,73,0.00,,,0.03,WUHU216HW,2013-02-05 02:48:00,
2013-02-04 20:53:00,7.4,0.6,29.47,SSW,203,0.0,0.7,73,0.00,,,0.03,WUHU216HW,2013-02-05 02:53:00,
2013-02-04 20:58:00,7.2,0.9,29.47,SW,225,1.8,1.8,75,0.00,,,0.03,WUHU216HW,2013-02-05 02:58:00,
2013-02-04 21:03:00,6.8,0.3,29.47,SSW,203,1.8,2.0,74,0.00,,,0.03,WUHU216HW,2013-02-05 03:03:00,
2013-02-04 21:08:00,6.5,0.2,29.47,SSW,203,0.7,2.0,75,0.00,,,0.03,WUHU216HW,2013-02-05 03:08:00,
2013-02-04 21:13:00,6.5,0.2,29.46,SSW,203,0.0,1.6,75,0.00,,,0.03,WUHU216HW,2013-02-05 03:13:00,
2013-02-04 21:18:00,6.7,0.1,29.46,SSW,203,1.3,1.6,74,0.00,,,0.03,WUHU216HW,2013-02-05 03:18:00,
2013-02-04 21:23:00,6.7,0.4,29.46,SSW,203,1.8,2.0,75,0.00,,,0.03,WUHU216HW,2013-02-05 03:23:00,
2013-02-04 21:28:00,6.7,0.4,29.46,SSW,203,0.7,2.0,75,0.00,,,0.03,WUHU216HW,2013-02-05 03:28:00,
2013-02-04 21:33:00,6.8,0.5,29.46,SSW,203,0.2,2.0,75,0.00,,,0.03,WUHU216HW,2013-02-05 03:33:00,
2013-02-04 21:38:00,6.5,0.2,29.46,SSW,203,1.6,1.6,75,0.00,,,0.03,WUHU216HW,2013-02-05 03:38:00,
2013-02-04 21:43:00,6.5,0.2,29.46,SW,225,1.8,1.8,75,0.00,,,0.03,WUHU216HW,2013-02-05 03:43:00,
2013-02-04 21:48:00,6.7,0.4,29.46,SSW,203,1.8,2.0,75,0.00,,,0.03,WUHU216HW,2013-02-05 03:48:00,
2013-02-04 21:53:00,6.7,0.4,29.46,SW,225,2.0,2.2,75,0.00,,,0.03,WUHU216HW,2013-02-05 03:53:00,
2013-02-04 21:58:00,6.5,0.2,29.45,SW,225,1.6,2.7,75,0.00,,,0.03,WUHU216HW,2013-02-05 03:58:00,
2013-02-04 22:03:00,6.7,0.4,29.45,SSW,203,1.6,2.7,75,0.00,,,0.03,WUHU216HW,2013-02-05 04:03:00,
2013-02-04 22:08:00,6.7,0.4,29.45,SSW,203,1.1,1.8,75,0.00,,,0.03,WUHU216HW,2013-02-05 04:08:00,
2013-02-04 22:13:00,6.8,0.8,29.45,SW,225,2.2,2.7,76,0.00,,,0.03,WUHU216HW,2013-02-05 04:13:00,
2013-02-04 22:18:00,6.8,0.8,29.45,SW,225,3.1,3.1,76,0.00,,,0.03,WUHU216HW,2013-02-05 04:18:00,
2013-02-04 22:23:00,6.8,0.8,29.46,SW,225,1.1,3.1,76,0.00,,,0.03,WUHU216HW,2013-02-05 04:23:00,
2013-02-04 22:28:00,6.8,0.8,29.45,SW,225,2.0,3.1,76,0.00,,,0.03,WUHU216HW,2013-02-05 04:28:00,
2013-02-04 22:33:00,6.8,0.8,29.45,SW,225,1.6,2.2,76,0.00,,,0.03,WUHU216HW,2013-02-05 04:33:00,
2013-02-04 22:38:00,6.8,0.8,29.45,SSW,203,2.5,2.5,76,0.00,,,0.03,WUHU216HW,2013-02-05 04:38:00,
2013-02-04 22:43:00,6.8,0.8,29.44,SW,225,1.8,2.5,76,0.00,,,0.03,WUHU216HW,2013-02-05 04:43:00,
2013-02-04 22:48:00,6.8,0.5,29.44,SSW,203,0.9,2.5,75,0.00,,,0.03,WUHU216HW,2013-02-05 04:48:00,
2013-02-04 22:53:00,6.8,0.5,29.44,SSW,203,1.8,2.0,75,0.00,,,0.03,WUHU216HW,2013-02-05 04:53:00,
2013-02-04 22:58:00,6.7,0.4,29.44,SSW,203,1.8,2.5,75,0.00,,,0.03,WUHU216HW,2013-02-05 04:58:00,
2013-02-04 23:00:00,6.7,0.4,29.44,SSW,203,2.7,2.9,75,0.00,,,0.03,WUHU216HW,2013-02-05 05:00:00,
2013-02-04 23:05:00,6.5,0.2,29.44,SSW,203,2.5,3.1,75,0.00,,,0.03,WUHU216HW,2013-02-05 05:05:00,
2013-02-04 23:10:00,6.5,0.2,29.44,SSW,203,1.3,3.1,75,0.00,,,0.03,WUHU216HW,2013-02-05 05:10:00,
2013-02-04 23:15:00,6.5,0.2,29.44,SSW,203,2.5,2.5,75,0.00,,,0.03,WUHU216HW,2013-02-05 05:15:00,
2013-02-04 23:20:00,6.3,0.3,29.44,SW,225,2.2,2.9,76,0.00,,,0.03,WUHU216HW,2013-02-05 05:20:00,
2013-02-04 23:25:00,6.3,0.5,29.44,SSW,203,2.9,2.9,77,0.00,,,0.03,WUHU216HW,2013-02-05 05:25:00,
2013-02-04 23:30:00,6.1,0.1,29.45,SSW,203,2.7,2.9,76,0.00,,,0.03,WUHU216HW,2013-02-05 05:30:00,
2013-02-04 23:35:00,6.1,0.1,29.44,SW,225,2.5,2.7,76,0.00,,,0.03,WUHU216HW,2013-02-05 05:35:00,
2013-02-04 23:40:00,5.9,-0.1,29.44,SSW,203,2.2,2.7,76,0.00,,,0.03,WUHU216HW,2013-02-05 05:40:00,
2013-02-04 23:45:00,5.8,-0.3,29.44,SSW,203,2.7,2.7,76,0.00,,,0.03,WUHU216HW,2013-02-05 05:45:00,
2013-02-04 23:50:00,5.8,-0.3,29.43,SSW,203,3.1,3.4,76,0.00,,,0.03,WUHU216HW,2013-02-05 05:50:00,
2013-02-04 23:55:00,5.6,-0.4,29.43,SSW,203,1.6,3.4,76,0.00,,,0.03,WUHU216HW,2013-02-05 05:55:00,